Orbital Elements at Epoch 2459200.5 (2020-Dec-17.0) TDB
Reference: JPL 14 (heliocentric ecliptic J2000)
Element | Value | Uncertainty (1-sigma) | Units |
e | .1577613305844583 | 8.9654e-08 | |
a | 2.542182444348951 | 1.3282e-08 | au |
q | 2.14112435934001 | 2.326e-07 | au |
i | 15.7783624318624 | 8.4003e-06 | deg |
node | 325.2850023415483 | 1.1243e-05 | deg |
peri | 125.1888915938123 | 5.5218e-05 | deg |
M | 16.13746131988323 | 4.5359e-05 | deg |
tp | 2459134.134676866919 (2020-Oct-11.63467687) | 0.00018674 | TDB |
period | 1480.500300160097 4.05 | 1.1602e-05 3.176e-08 | d yr |
n | .2431610449258744 | 1.9056e-09 | deg/d |
Q | 2.943240529357892 | 1.5377e-08 | au |
|
| | Orbit Determination Parameters
Additional Information
|